weather.gov     
National Weather Service

Terminal Aerodrome Forecast
NWS Homepage
This page is being discontinued on March 12, 2014.
The same data is available at this site. Please update your bookmarks.
Thank you, and we apologize for the inconvenience.
Please send an email to SR-SRH.Webmaster@noaa.gov with any concerns.


Current Version
Previous Version:    01  02  03  04  05  06  07  08  09  10  11  12  13  14  15  16  17  18  19  20  21  22  23  24  25  26  27  28  29  30  
   31  
[Printable]
173
FTUS41 KCAR 270533
TAFCAR
TAF
KCAR 270533Z 2706/2806 01013G24KT 1SM -SN VV010
     FM270900 01013G22KT 1 1/2SM -SN OVC008
     FM271630 35015G25KT 4SM -SN OVC020
     FM272000 35015G25KT P6SM BKN030
     FM272130 34007KT P6SM SCT030=


173
FTUS41 KCAR 270533
TAFCAR
TAF
KCAR 270533Z 2706/2806 01013G24KT 1SM -SN VV010
     FM270900 01013G22KT 1 1/2SM -SN OVC008
     FM271630 35015G25KT 4SM -SN OVC020
     FM272000 35015G25KT P6SM BKN030
     FM272130 34007KT P6SM SCT030=




U.S. Dept. of Commerce
NOAA National Weather Service
1325 East West Highway
Silver Spring, MD 20910
E-mail: w-nws.webmaster@noaa.gov
Page last modified: May 16, 2007
NATIONAL WEATHER SERVICE: for Safety, for Work, for Fun - FOR LIFE